Weather reports worldwide

Advertisment
Lyon/Bron, France (7480): temperature & dewpoint: 17.09.2020 08:00:00 - 23.09.2020 08:00:00 (CEST)Lyon/Bron, France (7480): temperature 5cm: 17.09.2020 08:00:00 - 23.09.2020 08:00:00 (CEST)Lyon/Bron, France (7480): temperature -20cm: 17.09.2020 08:00:00 - 23.09.2020 08:00:00 (CEST)Lyon/Bron, France (7480): wind speed & gusts: 17.09.2020 08:00:00 - 23.09.2020 08:00:00 (CEST)Lyon/Bron, France (7480): wind direction: 17.09.2020 08:00:00 - 23.09.2020 08:00:00 (CEST)Lyon/Bron, France (7480): reduced air pressure: 17.09.2020 08:00:00 - 23.09.2020 08:00:00 (CEST)Lyon/Bron, France (7480): visibility: 17.09.2020 08:00:00 - 23.09.2020 08:00:00 (CEST)Lyon/Bron, France (7480): sunshine duration: 17.09.2020 08:00:00 - 23.09.2020 08:00:00 (CEST)Lyon/Bron, France (7480): precipitation: 17.09.2020 08:00:00 - 23.09.2020 08:00:00 (CEST)
Date & Time tt [°C] td [°C] tt 5cm [°C] tt -20cm [°C] ff [km/h] ff [kn] fx [km/h] fx [kn] dd ppp [hPa] vv [km] sd [min] rr [mm]
23.09.2020 08:00:00 14,6 13,6 12,5 21,7 4 2 5 3 ESE 1011,6 14 7 0,0
23.09.2020 07:00:00 14,4 13,3 12,5 21,9 2 1 4 2 SE 1011,5 17 0 0,0
23.09.2020 06:00:00 15,2 13,9 13,5 22,0 5 3 8 4 SSE 1011,8 28 0 0,0
23.09.2020 05:00:00 15,7 14,2 14,7 22,2 6 3 10 5 S 1011,6 33 0 0,0
23.09.2020 04:00:00 16,4 14,8 15,0 22,2 5 3 7 4 SSE 1011,7 33 0 0,0
23.09.2020 03:00:00 16,8 15,1 15,4 22,5 2 1 9 5 SSE 1011,9 30 0 0,0
23.09.2020 02:00:00 16,9 14,9 15,3 22,6 8 4 11 6 SW 1012,0 44 0 0,0
23.09.2020 01:00:00 17,5 14,8 15,8 22,7 7 4 13 7 SW 1012,0 60 0 0,0
23.09.2020 00:00:00 18,3 15,0 17,5 22,8 9 5 14 8 SSW 1011,9 60 0 0,0
22.09.2020 23:00:00 18,8 15,1 18,2 22,9 8 5 22 12 SW 1011,9 60 0 0,0
22.09.2020 22:00:00 19,1 14,8 18,4 23,1 10 5 28 15 S 1011,7 60 0 0,0
22.09.2020 21:00:00 19,1 15,0 18,2 23,1 15 8 25 13 S 1011,3 60 0 0,0
22.09.2020 20:00:00 19,1 14,8 18,5 23,1 6 4 15 8 S 1011,0 54 0 0,0
22.09.2020 19:00:00 19,3 15,0 19,1 23,1 9 5 24 13 SSW 1010,9 19 0 0,0
22.09.2020 18:00:00 19,8 16,8 17,8 23,0 15 8 36 20 S 1010,5 57 0 1,8
22.09.2020 17:00:00 23,1 14,4 23,5 22,7 11 6 18 10 SW 1010,4 60 0 0,0
22.09.2020 16:00:00 23,4 14,1 24,3 22,5 3 2 25 14 SSE 1010,9 60 26 0,0
22.09.2020 15:00:00 23,5 14,8 25,7 22,2 16 8 30 16 SSE 1011,4 53 28 0,0
22.09.2020 14:00:00 24,0 15,8 27,2 21,9 16 8 29 16 SSE 1011,7 38 44 0,0
22.09.2020 13:00:00 23,5 16,3 26,2 21,8 9 5 16 9 SW 1012,1 49 45 0,0
22.09.2020 12:00:00 21,9 16,6 23,3 21,7 8 5 17 9 S 1012,9 54 16 0,0
22.09.2020 11:00:00 21,0 16,6 21,4 21,6 6 3 14 8 S 1013,2 41 25 0,0
22.09.2020 10:00:00 19,4 16,1 19,3 21,7 9 5 15 8 S 1013,4 43 10 0,0
22.09.2020 09:00:00 18,2 16,7 17,5 21,8 6 4 11 6 SSE 1013,7 28 0 0,0
22.09.2020 08:00:00 17,5 16,2 17,0 22,0 4 2 15 8 ESE 1013,6 27 0 0,0
22.09.2020 07:00:00 17,5 16,4 16,9 22,1 9 5 16 9 SE 1013,8 30 0 0,0
22.09.2020 06:00:00 17,2 15,7 16,8 22,3 10 5 17 9 ESE 1013,8 41 0 0,0
22.09.2020 05:00:00 17,1 16,0 15,7 22,5 4 2 11 6 ESE 1013,9 26 0 0,0
22.09.2020 04:00:00 16,3 14,7 15,2 23,0 7 4 29 15 NE 1014,4 27 0 26,5
22.09.2020 03:00:00 18,6 15,8 17,9 23,3 7 4 10 5 SE 1014,3 32 0 0,0
22.09.2020 02:00:00 18,8 16,0 17,8 23,5 5 3 9 5 SSE 1014,6 30 0 0,0
22.09.2020 01:00:00 18,8 15,7 17,7 23,6 5 3 9 5 SE 1014,7 34 0 0,0
22.09.2020 00:00:00 18,6 15,3 16,9 23,7 6 3 9 5 ESE 1014,8 40 0 0,0
21.09.2020 23:00:00 19,1 15,8 17,4 23,9 5 3 8 4 S 1014,9 40 0 0,0
21.09.2020 22:00:00 19,3 15,8 17,1 23,9 4 2 10 5 SSW 1015,1 38 0 0,0
21.09.2020 21:00:00 19,3 15,0 16,4 24,0 6 3 11 6 SSE 1014,7 45 0 0,0
21.09.2020 20:00:00 20,8 14,7 17,4 23,9 3 1 9 5 SW 1014,4 15 0 0,0
21.09.2020 19:00:00 22,8 14,6 22,2 23,9 7 4 11 6 SW 1014,0 59 46 0,0
21.09.2020 18:00:00 24,0 15,2 24,2 23,8 5 3 20 11 WSW 1014,0 50 60 0,0
21.09.2020 17:00:00 21,7 16,0 22,3 23,6 10 5 22 12 WSW 1014,5 36 0 0,0
21.09.2020 16:00:00 22,2 15,5 22,8 23,4 13 7 23 13 SW 1014,6 55 0 0,0
21.09.2020 15:00:00 23,9 14,3 25,1 23,1 13 7 28 15 N 1014,7 50 43 0,0
21.09.2020 14:00:00 23,7 16,0 28,1 23,0 12 7 26 14 NW 1015,4 24 50 0,0
21.09.2020 13:00:00 22,3 16,3 24,0 23,0 5 3 16 9 N 1015,7 20 6 0,0
21.09.2020 12:00:00 20,5 16,5 21,1 23,0 0 0 9 5 N 1016,0 20 0 0,0
21.09.2020 11:00:00 19,1 16,1 19,6 23,1 3 2 8 5 S 1016,2 20 0 0,0
21.09.2020 10:00:00 18,4 16,2 18,4 23,2 3 2 10 5 WSW 1016,1 14 0 0,0
21.09.2020 09:00:00 18,0 16,5 17,7 23,2 2 1 7 4 SW 1016,0 13 0 0,0
21.09.2020 08:00:00 17,7 16,4 17,3 23,4 3 2 5 3 SSW 1015,8 11 0 0,0
21.09.2020 07:00:00 17,4 16,1 17,0 23,5 0 0 4 2 N 1015,4 7 0 0,0
21.09.2020 06:00:00 17,5 16,4 17,1 23,6 6 3 8 4 SSE 1015,2 9 0 0,0
21.09.2020 05:00:00 17,6 16,5 17,0 23,7 4 2 7 4 ENE 1015,2 10 0 0,0
21.09.2020 04:00:00 17,8 16,7 17,2 23,9 5 3 7 4 SE 1015,3 6 0 0,0
21.09.2020 03:00:00 17,8 16,7 17,4 24,0 3 2 11 6 ESE 1015,6 6 0 0,0
21.09.2020 02:00:00 18,0 17,0 17,5 24,1 8 4 10 5 SSW 1015,8 7 0 0,0
21.09.2020 01:00:00 18,2 17,0 17,4 24,3 3 1 7 4 S 1016,0 7 0 0,0
21.09.2020 00:00:00 18,1 16,9 17,5 24,4 2 1 4 2 SSW 1015,8 12 0 0,0
20.09.2020 23:00:00 18,3 17,0 17,6 24,5 3 2 5 3 SSE 1016,0 17 0 0,0
20.09.2020 22:00:00 18,2 16,7 17,4 24,7 4 2 8 4 NE 1015,8 16 0 0,0
20.09.2020 21:00:00 18,1 16,6 17,2 24,8 3 1 7 4 W 1015,5 30 0 0,0
20.09.2020 20:00:00 18,0 16,3 17,3 24,9 6 3 7 4 NNW 1015,0 20 0 0,2
20.09.2020 19:00:00 18,2 16,5 16,9 24,9 2 1 16 9 SE 1014,7 13 0 1,8
20.09.2020 18:00:00 18,7 15,9 17,0 24,8 11 6 27 15 ENE 1014,5 13 0 0,2
20.09.2020 17:00:00 19,7 15,3 17,4 24,6 11 6 37 20 E 1014,0 9 0 0,8
20.09.2020 16:00:00 24,8 14,9 26,3 24,4 4 2 15 8 WSW 1013,4 49 1 0,0
20.09.2020 15:00:00 24,8 14,9 27,0 24,2 7 4 19 11 NNW 1013,5 49 12 0,0
20.09.2020 14:00:00 25,7 15,1 29,6 24,0 5 3 14 8 NNE 1014,1 42 44 0,0
20.09.2020 13:00:00 24,6 15,8 25,1 23,9 7 4 15 8 SE 1014,6 42 32 0,0
20.09.2020 12:00:00 22,8 15,4 25,1 23,8 3 1 12 6 N 1014,7 34 32 0,0
20.09.2020 11:00:00 23,1 15,9 24,0 23,9 6 3 10 5 ESE 1014,7 33 48 0,0
20.09.2020 10:00:00 20,9 15,7 21,8 24,0 4 2 13 7 SW 1014,9 30 60 0,0
20.09.2020 09:00:00 18,6 16,4 17,8 24,1 7 4 12 6 WNW 1014,6 14 27 0,0
20.09.2020 08:00:00 17,5 16,0 16,5 24,2 9 5 18 10 WSW 1014,7 13 5 0,0
20.09.2020 07:00:00 17,3 15,6 16,5 24,3 2 1 6 4 SSE 1014,0 12 0 0,0
20.09.2020 06:00:00 17,3 15,6 16,5 24,5 3 2 16 9 E 1014,0 16 0 0,0
20.09.2020 05:00:00 17,9 16,2 16,7 24,6 5 3 10 5 NE 1014,0 8 0 0,0
20.09.2020 04:00:00 18,0 16,0 16,5 24,8 4 2 32 17 NW 1014,1 15 0 0,8
20.09.2020 03:00:00 18,2 15,3 16,3 25,0 12 6 27 14 S 1014,9 29 0 0,0
20.09.2020 02:00:00 17,4 15,0 16,4 25,1 6 4 10 5 SE 1014,1 31 0 0,0
20.09.2020 01:00:00 17,5 15,3 14,9 25,3 5 3 6 4 SSE 1014,3 27 0 0,0
20.09.2020 00:00:00 17,3 14,9 15,1 25,5 2 1 6 3 SE 1013,7 30 0 0,0
19.09.2020 23:00:00 17,9 15,3 15,6 25,7 4 2 8 4 S 1014,1 37 0 0,0
19.09.2020 22:00:00 18,2 14,9 15,7 25,9 0 0 6 4 N 1014,1 46 0 0,0
19.09.2020 21:00:00 18,9 15,0 17,5 25,9 0 0 6 3 N 1014,1 19 0 0,0
19.09.2020 20:00:00 19,5 14,9 18,6 26,0 4 2 22 12 SSW 1013,9 43 0 0,0
19.09.2020 19:00:00 20,3 15,1 20,0 26,1 14 8 26 14 SSW 1013,9 60 0 0,0
19.09.2020 18:00:00 20,7 14,8 18,4 26,0 13 7 39 21 WSW 1013,9 50 0 0,4
19.09.2020 17:00:00 20,8 16,4 18,4 25,9 32 18 63 34 WSW 1015,0 5 0 0,8
19.09.2020 16:00:00 28,8 11,8 29,8 25,7 24 13 39 21 S 1012,8 32 12 0,0
19.09.2020 15:00:00 29,2 11,3 30,9 25,6 27 14 41 22 S 1012,7 46 33 0,0
19.09.2020 14:00:00 30,4 12,8 29,3 25,6 21 11 43 23 SSE 1012,9 40 37 0,0
19.09.2020 13:00:00 27,7 12,1 28,5 25,6 25 14 52 28 S 1014,5 44 13 0,0
19.09.2020 12:00:00 27,5 13,1 26,5 25,6 27 15 44 24 S 1014,8 30 15 0,0
19.09.2020 11:00:00 24,7 14,8 25,1 25,7 10 5 22 12 SSE 1015,6 31 0 0,0
19.09.2020 10:00:00 23,4 16,0 22,4 25,9 11 6 21 11 ESE 1015,7 28 6 0,0
19.09.2020 09:00:00 21,1 16,9 19,8 26,0 10 5 23 13 E 1015,7 17 13 0,0
19.09.2020 08:00:00 19,6 16,4 18,6 26,2 8 5 17 9 E 1015,8 16 6 0,0
19.09.2020 07:00:00 20,3 16,5 19,6 26,4 11 6 21 12 ESE 1015,7 15 0 0,0
19.09.2020 06:00:00 20,9 16,7 18,6 26,5 13 7 25 13 E 1015,7 17 0 0,2
19.09.2020 05:00:00 21,2 17,2 18,8 26,7 7 4 13 7 ESE 1016,4 11 0 0,6
19.09.2020 04:00:00 21,9 16,6 19,6 26,8 7 4 11 6 SE 1016,2 17 0 0,0
19.09.2020 03:00:00 22,6 15,9 21,7 26,9 8 4 13 7 S 1016,5 19 0 0,0
19.09.2020 02:00:00 22,9 16,7 20,9 27,0 9 5 22 12 ESE 1016,2 23 0 0,0
19.09.2020 01:00:00 24,0 15,5 20,7 27,1 16 9 29 16 S 1016,2 19 0 0,0
19.09.2020 00:00:00 24,9 14,7 24,1 27,3 17 9 30 16 S 1015,9 32 0 0,0
18.09.2020 23:00:00 25,3 14,1 24,5 27,3 20 11 32 17 S 1016,1 33 0 0,0
18.09.2020 22:00:00 25,9 14,7 25,3 27,3 16 8 35 19 SSE 1015,9 32 0 0,0
18.09.2020 21:00:00 27,4 14,1 26,8 27,2 19 11 36 19 S 1015,4 33 0 0,0
18.09.2020 20:00:00 29,4 12,8 28,7 27,1 21 11 35 19 S 1014,7 41 12 0,0
18.09.2020 19:00:00 30,5 12,4 30,5 26,9 23 13 45 24 S 1014,5 42 14 0,0
18.09.2020 18:00:00 32,3 12,5 35,2 26,6 21 11 50 27 S 1014,2 25 60 0,0
18.09.2020 17:00:00 32,4 13,1 34,7 26,3 27 15 50 27 S 1014,2 19 60 0,0
18.09.2020 16:00:00 32,1 12,8 35,4 25,9 31 17 51 28 S 1014,9 23 60 0,0
18.09.2020 15:00:00 31,8 12,6 35,4 25,6 29 16 52 28 S 1015,5 20 60 0,0
18.09.2020 14:00:00 31,3 13,6 34,9 25,4 32 17 50 27 SSE 1016,0 39 60 0,0
18.09.2020 13:00:00 29,8 14,0 33,6 25,2 21 11 40 22 S 1016,6 49 56 0,0
18.09.2020 12:00:00 28,7 14,9 32,2 25,2 19 10 30 16 S 1017,1 19 60 0,0
18.09.2020 11:00:00 27,4 15,1 29,8 25,2 10 5 22 12 SE 1017,4 32 60 0,0
18.09.2020 10:00:00 23,5 15,0 25,0 25,4 3 1 6 4 E 1017,6 20 60 0,0
18.09.2020 09:00:00 19,6 14,2 16,0 25,6 3 2 8 5 S 1017,6 15 60 0,0
18.09.2020 08:00:00 16,9 13,2 13,3 25,8 6 4 8 5 S 1017,5 18 16 0,0
18.09.2020 07:00:00 16,5 13,0 13,4 26,0 4 2 5 3 SW 1017,2 23 0 0,0
18.09.2020 06:00:00 16,8 12,7 14,0 26,3 2 1 6 3 SSW 1017,1 23 0 0,0
18.09.2020 05:00:00 17,3 13,0 14,7 26,5 4 2 6 3 SE 1017,4 24 0 0,0
18.09.2020 04:00:00 18,1 13,2 15,3 26,7 3 2 5 3 S 1017,4 26 0 0,0
18.09.2020 03:00:00 19,1 13,3 15,5 26,9 3 2 9 5 ESE 1017,2 30 0 0,0
18.09.2020 02:00:00 20,0 13,0 16,4 27,1 3 2 7 4 SSE 1016,6 32 0 0,0
18.09.2020 01:00:00 21,4 12,8 17,4 27,3 2 1 9 5 W 1016,3 30 0 0,0
18.09.2020 00:00:00 23,0 12,9 18,4 27,4 2 1 6 3 NW 1016,2 35 0 0,0
17.09.2020 23:00:00 23,4 12,7 19,7 27,5 4 2 12 6 N 1016,1 36 0 0,0
17.09.2020 22:00:00 24,5 13,1 20,6 27,6 5 3 9 5 WNW 1015,5 35 0 0,0
17.09.2020 21:00:00 27,1 13,4 25,4 27,5 8 4 17 9 N 1014,8 36 0 0,0
17.09.2020 20:00:00 28,5 14,0 26,0 27,4 9 5 22 12 NNW 1014,2 37 24 0,0
17.09.2020 19:00:00 30,6 15,1 31,6 27,2 13 7 24 13 NNW 1013,6 31 60 0,0
17.09.2020 18:00:00 31,7 14,8 35,7 26,8 11 6 22 12 NNW 1013,4 49 60 0,0
17.09.2020 17:00:00 31,6 14,3 36,0 26,4 5 3 22 12 NE 1013,9 38 60 0,0
17.09.2020 16:00:00 31,6 14,7 36,6 26,0 6 3 23 12 NNE 1014,4 20 60 0,0
17.09.2020 15:00:00 30,4 14,1 36,6 25,7 12 6 32 17 NNW 1015,1 49 60 0,0
17.09.2020 14:00:00 29,3 13,9 34,9 25,4 10 6 22 12 N 1015,8 52 60 0,0
17.09.2020 13:00:00 27,3 13,3 33,8 25,2 9 5 22 12 N 1016,5 46 60 0,0
17.09.2020 12:00:00 25,7 13,9 31,5 25,2 7 4 18 10 NNE 1017,4 30 60 0,0
17.09.2020 11:00:00 23,7 13,6 28,3 25,3 8 4 18 10 NNW 1017,6 58 60 0,0
17.09.2020 10:00:00 22,0 13,4 24,0 25,5 11 6 23 12 N 1017,8 36 60 0,0
17.09.2020 09:00:00 20,5 13,2 18,4 25,7 11 6 18 10 NNW 1017,9 27 60 0,0
17.09.2020 08:00:00 18,8 12,8 15,4 25,9 7 4 14 8 N 1017,8 43 17 0,0

tt = temperature
td = dewpoint
tt 5cm = temperature 5cm
tt -20cm = temperature -20cm
ff = wind speed
fx = gusts
dd = wind direction
ppp = reduced air pressure
vv = visibility
sd = sunshine duration
rr = precipitation

Next stations